owner,sensor,date,latitude,longitude,air_pressure(mBar),qcFlag 
COAPS,ioos:station:COAPS:N7:1,2011-10-27T16:49:00Z,29.6619,-84.3731,1012.626,1111122 
COAPS,ioos:station:COAPS:N7:1,2011-10-27T16:50:00Z,29.6619,-84.3731,1011.873,1111122 
COAPS,ioos:station:COAPS:N7:1,2011-10-27T16:51:00Z,29.6619,-84.3731,1012.919,1111122 
COAPS,ioos:station:COAPS:N7:1,2011-10-27T16:52:00Z,29.6619,-84.3731,1013.851,1111122 
COAPS,ioos:station:COAPS:N7:1,2011-10-27T16:53:00Z,29.6619,-84.3731,1013.903,1111122 
COAPS,ioos:station:COAPS:N7:1,2011-10-27T16:54:00Z,29.6619,-84.3731,1014.847,1111122 
COAPS,ioos:station:COAPS:N7:1,2011-10-27T16:55:00Z,29.6619,-84.3731,1015.2,1111122 
COAPS,ioos:station:COAPS:N7:1,2011-10-27T16:56:00Z,29.6619,-84.3731,1015.083,1111122 
COAPS,ioos:station:COAPS:N7:1,2011-10-27T16:57:00Z,29.6619,-84.3731,1015.102,1111122 
COAPS,ioos:station:COAPS:N7:1,2011-10-27T16:58:00Z,29.6619,-84.3731,1015.086,1111122 
COAPS,ioos:station:COAPS:N7:1,2011-10-27T16:59:00Z,29.6619,-84.3731,1015.088,1111122 
COAPS,ioos:station:COAPS:N7:1,2011-10-27T17:00:00Z,29.6619,-84.3731,1015.087,1111122 
COAPS,ioos:station:COAPS:N7:1,2011-10-27T17:01:00Z,29.6619,-84.3731,1015.072,1111122 
COAPS,ioos:station:COAPS:N7:1,2011-10-27T17:02:00Z,29.6619,-84.3731,1015.086,1111122 
COAPS,ioos:station:COAPS:N7:1,2011-10-27T17:03:00Z,29.6619,-84.3731,1015.133,1111122 
COAPS,ioos:station:COAPS:N7:1,2011-10-27T17:04:00Z,29.6619,-84.3731,1015.11,1111122 
COAPS,ioos:station:COAPS:N7:1,2011-10-27T17:05:00Z,29.6619,-84.3731,1015.082,1111122 
COAPS,ioos:station:COAPS:N7:1,2011-10-27T17:06:00Z,29.6619,-84.3731,1015.077,1111122 
COAPS,ioos:station:COAPS:N7:1,2011-10-27T17:07:00Z,29.6619,-84.3731,1014.998,1111122 
COAPS,ioos:station:COAPS:N7:1,2011-10-27T17:08:00Z,29.6619,-84.3731,1014.948,1111122 
COAPS,ioos:station:COAPS:N7:1,2011-10-27T17:09:00Z,29.6619,-84.3731,1014.777,1111122 
COAPS,ioos:station:COAPS:N7:1,2011-10-27T17:10:00Z,29.6619,-84.3731,1014.8,1111122 
COAPS,ioos:station:COAPS:N7:1,2011-10-27T17:11:00Z,29.6619,-84.3731,1014.913,1111122 
COAPS,ioos:station:COAPS:N7:1,2011-10-27T17:12:00Z,29.6619,-84.3731,1014.922,1111122 
COAPS,ioos:station:COAPS:N7:1,2011-10-27T17:13:00Z,29.6619,-84.3731,1014.923,1111122 
COAPS,ioos:station:COAPS:N7:1,2011-10-27T17:14:00Z,29.6619,-84.3731,1014.929,1111122 
COAPS,ioos:station:COAPS:N7:1,2011-10-27T17:15:00Z,29.6619,-84.3731,1014.93,1111122 
COAPS,ioos:station:COAPS:N7:1,2011-10-27T17:16:00Z,29.6619,-84.3731,1014.885,1111122 
COAPS,ioos:station:COAPS:N7:1,2011-10-27T17:17:00Z,29.6619,-84.3731,1014.864,1111122 
COAPS,ioos:station:COAPS:N7:1,2011-10-27T17:18:00Z,29.6619,-84.3731,1014.868,1111122 
COAPS,ioos:station:COAPS:N7:1,2011-10-27T17:19:00Z,29.6619,-84.3731,1014.855,1111122 
COAPS,ioos:station:COAPS:N7:1,2011-10-27T17:20:00Z,29.6619,-84.3731,1014.877,1111122 
COAPS,ioos:station:COAPS:N7:1,2011-10-27T17:21:00Z,29.6619,-84.3731,1014.869,1111122 
COAPS,ioos:station:COAPS:N7:1,2011-10-27T17:22:00Z,29.6619,-84.3731,1014.942,1111122 
COAPS,ioos:station:COAPS:N7:1,2011-10-27T17:23:00Z,29.6619,-84.3731,1014.942,1111122 
COAPS,ioos:station:COAPS:N7:1,2011-10-27T17:24:00Z,29.6619,-84.3731,1014.95,1111122 
COAPS,ioos:station:COAPS:N7:1,2011-10-27T17:25:00Z,29.6619,-84.3731,1014.934,1111122 
COAPS,ioos:station:COAPS:N7:1,2011-10-27T17:26:00Z,29.6619,-84.3731,1014.715,1111122 
COAPS,ioos:station:COAPS:N7:1,2011-10-27T17:27:00Z,29.6619,-84.3731,1014.815,1111122 
COAPS,ioos:station:COAPS:N7:1,2011-10-27T17:28:00Z,29.6619,-84.3731,1014.933,1111122 
COAPS,ioos:station:COAPS:N7:1,2011-10-27T17:29:00Z,29.6619,-84.3731,1014.785,1111122 
COAPS,ioos:station:COAPS:N7:1,2011-10-27T17:30:00Z,29.6619,-84.3731,1014.781,1111122 
COAPS,ioos:station:COAPS:N7:1,2011-10-27T17:31:00Z,29.6619,-84.3731,1014.768,1111122 
COAPS,ioos:station:COAPS:N7:1,2011-10-27T17:32:00Z,29.6619,-84.3731,1014.84,1111122 
COAPS,ioos:station:COAPS:N7:1,2011-10-27T17:33:00Z,29.6619,-84.3731,1014.905,1111122 
COAPS,ioos:station:COAPS:N7:1,2011-10-27T17:34:00Z,29.6619,-84.3731,1014.913,1111122 
COAPS,ioos:station:COAPS:N7:1,2011-10-27T17:35:00Z,29.6619,-84.3731,1014.921,1111122 
COAPS,ioos:station:COAPS:N7:1,2011-10-27T17:36:00Z,29.6619,-84.3731,1014.882,1111122 
COAPS,ioos:station:COAPS:N7:1,2011-10-27T17:37:00Z,29.6619,-84.3731,1014.947,1111122 
COAPS,ioos:station:COAPS:N7:1,2011-10-27T17:38:00Z,29.6619,-84.3731,1014.919,1111122 
COAPS,ioos:station:COAPS:N7:1,2011-10-27T17:39:00Z,29.6619,-84.3731,1014.929,1111122 
COAPS,ioos:station:COAPS:N7:1,2011-10-27T17:40:00Z,29.6619,-84.3731,1014.837,1111122 
COAPS,ioos:station:COAPS:N7:1,2011-10-27T17:41:00Z,29.6619,-84.3731,1014.91,1111122 
COAPS,ioos:station:COAPS:N7:1,2011-10-27T17:42:00Z,29.6619,-84.3731,1014.787,1111122 
COAPS,ioos:station:COAPS:N7:1,2011-10-27T17:43:00Z,29.6619,-84.3731,1014.62,1111122 
COAPS,ioos:station:COAPS:N7:1,2011-10-27T17:44:00Z,29.6619,-84.3731,1014.632,1111122 
COAPS,ioos:station:COAPS:N7:1,2011-10-27T17:45:00Z,29.6619,-84.3731,1014.545,1111122 
COAPS,ioos:station:COAPS:N7:1,2011-10-27T17:46:00Z,29.6619,-84.3731,1014.565,1111122 
COAPS,ioos:station:COAPS:N7:1,2011-10-27T17:47:00Z,29.6619,-84.3731,1014.728,1111122 
COAPS,ioos:station:COAPS:N7:1,2011-10-27T17:48:00Z,29.6619,-84.3731,1014.706,1111122 
COAPS,ioos:station:COAPS:N7:1,2011-10-27T17:49:00Z,29.6619,-84.3731,1014.678,1111122 
COAPS,ioos:station:COAPS:N7:1,2011-10-27T17:50:00Z,29.6619,-84.3731,1014.64,1111122 
COAPS,ioos:station:COAPS:N7:1,2011-10-27T17:51:00Z,29.6619,-84.3731,1014.608,1111122 
COAPS,ioos:station:COAPS:N7:1,2011-10-27T17:52:00Z,29.6619,-84.3731,1014.602,1111122 
COAPS,ioos:station:COAPS:N7:1,2011-10-27T17:53:00Z,29.6619,-84.3731,1014.613,1111122 
COAPS,ioos:station:COAPS:N7:1,2011-10-27T17:54:00Z,29.6619,-84.3731,1014.56,1111122 
COAPS,ioos:station:COAPS:N7:1,2011-10-27T17:55:00Z,29.6619,-84.3731,1014.549,1111122 
COAPS,ioos:station:COAPS:N7:1,2011-10-27T17:56:00Z,29.6619,-84.3731,1014.868,1111122 
COAPS,ioos:station:COAPS:N7:1,2011-10-27T17:57:00Z,29.6619,-84.3731,1014.53,1111122 
COAPS,ioos:station:COAPS:N7:1,2011-10-27T17:58:00Z,29.6619,-84.3731,1014.546,1111122 
COAPS,ioos:station:COAPS:N7:1,2011-10-27T17:59:00Z,29.6619,-84.3731,1014.548,1111122 
COAPS,ioos:station:COAPS:N7:1,2011-10-27T18:00:00Z,29.6619,-84.3731,1014.548,1111122 
COAPS,ioos:station:COAPS:N7:1,2011-10-27T18:01:00Z,29.6619,-84.3731,1014.544,1111122 
COAPS,ioos:station:COAPS:N7:1,2011-10-27T18:02:00Z,29.6619,-84.3731,1014.549,1111122 
COAPS,ioos:station:COAPS:N7:1,2011-10-27T18:03:00Z,29.6619,-84.3731,1014.541,1111122 
COAPS,ioos:station:COAPS:N7:1,2011-10-27T18:04:00Z,29.6619,-84.3731,1014.529,1111122 
COAPS,ioos:station:COAPS:N7:1,2011-10-27T18:05:00Z,29.6619,-84.3731,1014.492,1111122 
COAPS,ioos:station:COAPS:N7:1,2011-10-27T18:06:00Z,29.6619,-84.3731,1014.495,1111122 
COAPS,ioos:station:COAPS:N7:1,2011-10-27T18:07:00Z,29.6619,-84.3731,1014.5,1111122 
COAPS,ioos:station:COAPS:N7:1,2011-10-27T18:08:00Z,29.6619,-84.3731,1014.48,1111122 
COAPS,ioos:station:COAPS:N7:1,2011-10-27T18:09:00Z,29.6619,-84.3731,1014.512,1111122 
COAPS,ioos:station:COAPS:N7:1,2011-10-27T18:10:00Z,29.6619,-84.3731,1014.459,1111122 
COAPS,ioos:station:COAPS:N7:1,2011-10-27T18:11:00Z,29.6619,-84.3731,1014.401,1111122 
COAPS,ioos:station:COAPS:N7:1,2011-10-27T18:12:00Z,29.6619,-84.3731,1014.389,1111122 
COAPS,ioos:station:COAPS:N7:1,2011-10-27T18:13:00Z,29.6619,-84.3731,1014.394,1111122 
COAPS,ioos:station:COAPS:N7:1,2011-10-27T18:14:00Z,29.6619,-84.3731,1014.353,1111122 
COAPS,ioos:station:COAPS:N7:1,2011-10-27T18:15:00Z,29.6619,-84.3731,1014.383,1111122 
COAPS,ioos:station:COAPS:N7:1,2011-10-27T18:16:00Z,29.6619,-84.3731,1014.38,1111122 
COAPS,ioos:station:COAPS:N7:1,2011-10-27T18:17:00Z,29.6619,-84.3731,1014.401,1111122 
COAPS,ioos:station:COAPS:N7:1,2011-10-27T18:18:00Z,29.6619,-84.3731,1014.456,1111122 
COAPS,ioos:station:COAPS:N7:1,2011-10-27T18:19:00Z,29.6619,-84.3731,1014.705,1111122 
COAPS,ioos:station:COAPS:N7:1,2011-10-27T18:20:00Z,29.6619,-84.3731,1014.433,1111122 
COAPS,ioos:station:COAPS:N7:1,2011-10-27T18:21:00Z,29.6619,-84.3731,1014.448,1111122 
COAPS,ioos:station:COAPS:N7:1,2011-10-27T18:22:00Z,29.6619,-84.3731,1014.452,1111122 
COAPS,ioos:station:COAPS:N7:1,2011-10-27T18:23:00Z,29.6619,-84.3731,1014.44,1111122 
COAPS,ioos:station:COAPS:N7:1,2011-10-27T18:24:00Z,29.6619,-84.3731,1014.45,1111122 
COAPS,ioos:station:COAPS:N7:1,2011-10-27T18:25:00Z,29.6619,-84.3731,1014.463,1111122 
COAPS,ioos:station:COAPS:N7:1,2011-10-27T18:26:00Z,29.6619,-84.3731,1014.44,1111122 
COAPS,ioos:station:COAPS:N7:1,2011-10-27T18:27:00Z,29.6619,-84.3731,1014.45,1111122 
COAPS,ioos:station:COAPS:N7:1,2011-10-27T18:28:00Z,29.6619,-84.3731,1014.458,1111122 
COAPS,ioos:station:COAPS:N7:1,2011-10-27T18:29:00Z,29.6619,-84.3731,1014.443,1111122 
COAPS,ioos:station:COAPS:N7:1,2011-10-27T18:30:00Z,29.6619,-84.3731,1014.448,1111122 
COAPS,ioos:station:COAPS:N7:1,2011-10-27T18:31:00Z,29.6619,-84.3731,1014.439,1111122 
COAPS,ioos:station:COAPS:N7:1,2011-10-27T18:32:00Z,29.6619,-84.3731,1014.441,1111122 
COAPS,ioos:station:COAPS:N7:1,2011-10-27T18:33:00Z,29.6619,-84.3731,1014.422,1111122 
COAPS,ioos:station:COAPS:N7:1,2011-10-27T18:34:00Z,29.6619,-84.3731,1014.442,1111122 
COAPS,ioos:station:COAPS:N7:1,2011-10-27T18:35:00Z,29.6619,-84.3731,1014.442,1111122 
COAPS,ioos:station:COAPS:N7:1,2011-10-27T18:36:00Z,29.6619,-84.3731,1014.427,1111122 
COAPS,ioos:station:COAPS:N7:1,2011-10-27T18:37:00Z,29.6619,-84.3731,1014.405,1111122 
COAPS,ioos:station:COAPS:N7:1,2011-10-27T18:38:00Z,29.6619,-84.3731,1014.385,1111122 
COAPS,ioos:station:COAPS:N7:1,2011-10-27T18:39:00Z,29.6619,-84.3731,1014.374,1111122 
COAPS,ioos:station:COAPS:N7:1,2011-10-27T18:40:00Z,29.6619,-84.3731,1014.379,1111122 
COAPS,ioos:station:COAPS:N7:1,2011-10-27T18:41:00Z,29.6619,-84.3731,1014.397,1111122 
COAPS,ioos:station:COAPS:N7:1,2011-10-27T18:42:00Z,29.6619,-84.3731,1014.375,1111122 
COAPS,ioos:station:COAPS:N7:1,2011-10-27T18:43:00Z,29.6619,-84.3731,1014.369,1111122 
COAPS,ioos:station:COAPS:N7:1,2011-10-27T18:44:00Z,29.6619,-84.3731,1014.386,1111122 
COAPS,ioos:station:COAPS:N7:1,2011-10-27T18:45:00Z,29.6619,-84.3731,1014.353,1111122 
COAPS,ioos:station:COAPS:N7:1,2011-10-27T18:46:00Z,29.6619,-84.3731,1014.348,1111122 
COAPS,ioos:station:COAPS:N7:1,2011-10-27T18:47:00Z,29.6619,-84.3731,1014.339,1111122 
COAPS,ioos:station:COAPS:N7:1,2011-10-27T18:48:00Z,29.6619,-84.3731,1014.326,1111122 
COAPS,ioos:station:COAPS:N7:1,2011-10-27T18:49:00Z,29.6619,-84.3731,1014.274,1111122 
COAPS,ioos:station:COAPS:N7:1,2011-10-27T18:50:00Z,29.6619,-84.3731,1014.302,1111122 
COAPS,ioos:station:COAPS:N7:1,2011-10-27T18:51:00Z,29.6619,-84.3731,1014.306,1111122 
COAPS,ioos:station:COAPS:N7:1,2011-10-27T18:52:00Z,29.6619,-84.3731,1014.261,1111122 
COAPS,ioos:station:COAPS:N7:1,2011-10-27T18:53:00Z,29.6619,-84.3731,1014.23,1111122 
COAPS,ioos:station:COAPS:N7:1,2011-10-27T18:54:00Z,29.6619,-84.3731,1014.227,1111122 
COAPS,ioos:station:COAPS:N7:1,2011-10-27T18:55:00Z,29.6619,-84.3731,1014.207,1111122 
COAPS,ioos:station:COAPS:N7:1,2011-10-27T19:01:00Z,29.6619,-84.3731,1014.468,1111122 
COAPS,ioos:station:COAPS:N7:1,2011-10-27T19:02:00Z,29.6619,-84.3731,1014.24,1111122 
COAPS,ioos:station:COAPS:N7:1,2011-10-27T19:03:00Z,29.6619,-84.3731,1014.285,1111122 
COAPS,ioos:station:COAPS:N7:1,2011-10-28T12:30:00Z,29.6619,-84.3731,1014.765,1111122 
COAPS,ioos:station:COAPS:N7:1,2011-10-28T12:31:00Z,29.6619,-84.3731,1014.87,1111122 
COAPS,ioos:station:COAPS:N7:1,2011-10-28T12:32:00Z,29.6619,-84.3731,1014.816,1111122 
COAPS,ioos:station:COAPS:N7:1,2011-10-28T12:33:00Z,29.6619,-84.3731,1014.716,1111122 
COAPS,ioos:station:COAPS:N7:1,2011-10-28T12:34:00Z,29.6619,-84.3731,1014.677,1111122 
COAPS,ioos:station:COAPS:N7:1,2011-10-28T12:35:00Z,29.6619,-84.3731,1014.631,1111122 
COAPS,ioos:station:COAPS:N7:1,2011-10-28T12:36:00Z,29.6619,-84.3731,1014.675,1111122 
COAPS,ioos:station:COAPS:N7:1,2011-10-28T12:37:00Z,29.6619,-84.3731,1014.789,1111122 
COAPS,ioos:station:COAPS:N7:1,2011-10-28T12:38:00Z,29.6619,-84.3731,1014.852,1111122 
COAPS,ioos:station:COAPS:N7:1,2011-10-28T12:39:00Z,29.6619,-84.3731,1014.835,1111122 
COAPS,ioos:station:COAPS:N7:1,2011-10-28T12:40:00Z,29.6619,-84.3731,1014.843,1111122 
COAPS,ioos:station:COAPS:N7:1,2011-10-28T12:41:00Z,29.6619,-84.3731,1014.803,1111122 
COAPS,ioos:station:COAPS:N7:1,2011-10-28T12:42:00Z,29.6619,-84.3731,1014.82,1111122 
COAPS,ioos:station:COAPS:N7:1,2011-10-28T12:43:00Z,29.6619,-84.3731,1014.757,1111122 
COAPS,ioos:station:COAPS:N7:1,2011-10-28T12:44:00Z,29.6619,-84.3731,1014.779,1111122 
COAPS,ioos:station:COAPS:N7:1,2011-10-28T12:45:00Z,29.6619,-84.3731,1014.83,1111122 
COAPS,ioos:station:COAPS:N7:1,2011-10-28T12:46:00Z,29.6619,-84.3731,1014.799,1111122 
COAPS,ioos:station:COAPS:N7:1,2011-10-28T12:47:00Z,29.6619,-84.3731,1014.74,1111122 
COAPS,ioos:station:COAPS:N7:1,2011-10-28T12:48:00Z,29.6619,-84.3731,1014.74,1111122 
COAPS,ioos:station:COAPS:N7:1,2011-10-28T12:49:00Z,29.6619,-84.3731,1014.83,1111122 
COAPS,ioos:station:COAPS:N7:1,2011-10-28T12:50:00Z,29.6619,-84.3731,1014.789,1111122 
COAPS,ioos:station:COAPS:N7:1,2011-10-28T12:51:00Z,29.6619,-84.3731,1014.83,1111122 
COAPS,ioos:station:COAPS:N7:1,2011-10-28T12:52:00Z,29.6619,-84.3731,1014.78,1111122 
COAPS,ioos:station:COAPS:N7:1,2011-10-28T12:53:00Z,29.6619,-84.3731,1014.767,1111122 
COAPS,ioos:station:COAPS:N7:1,2011-10-28T12:54:00Z,29.6619,-84.3731,1014.858,1111122 
COAPS,ioos:station:COAPS:N7:1,2011-10-28T12:55:00Z,29.6619,-84.3731,1014.915,1111122 
COAPS,ioos:station:COAPS:N7:1,2011-10-28T12:56:00Z,29.6619,-84.3731,1014.891,1111122 
COAPS,ioos:station:COAPS:N7:1,2011-10-28T12:57:00Z,29.6619,-84.3731,1014.963,1111122 
COAPS,ioos:station:COAPS:N7:1,2011-10-28T12:58:00Z,29.6619,-84.3731,1014.961,1111122 
COAPS,ioos:station:COAPS:N7:1,2011-10-28T12:59:00Z,29.6619,-84.3731,1014.956,1111122 
COAPS,ioos:station:COAPS:N7:1,2011-10-28T13:00:00Z,29.6619,-84.3731,1014.956,1111122 
COAPS,ioos:station:COAPS:N7:1,2011-10-28T13:01:00Z,29.6619,-84.3731,1014.943,1111122 
COAPS,ioos:station:COAPS:N7:1,2011-10-28T13:02:00Z,29.6619,-84.3731,1014.935,1111122 
COAPS,ioos:station:COAPS:N7:1,2011-10-28T13:03:00Z,29.6619,-84.3731,1014.935,1111122 
COAPS,ioos:station:COAPS:N7:1,2011-10-28T13:04:00Z,29.6619,-84.3731,1014.803,1111122 
COAPS,ioos:station:COAPS:N7:1,2011-10-28T13:05:00Z,29.6619,-84.3731,1014.817,1111122 
COAPS,ioos:station:COAPS:N7:1,2011-10-28T13:06:00Z,29.6619,-84.3731,1014.702,1111122 
COAPS,ioos:station:COAPS:N7:1,2011-10-28T13:07:00Z,29.6619,-84.3731,1014.723,1111122 
COAPS,ioos:station:COAPS:N7:1,2011-10-28T13:08:00Z,29.6619,-84.3731,1014.731,1111122 
COAPS,ioos:station:COAPS:N7:1,2011-10-28T13:09:00Z,29.6619,-84.3731,1014.684,1111122 
COAPS,ioos:station:COAPS:N7:1,2011-10-28T13:10:00Z,29.6619,-84.3731,1014.787,1111122 
COAPS,ioos:station:COAPS:N7:1,2011-10-28T13:11:00Z,29.6619,-84.3731,1014.822,1111122 
COAPS,ioos:station:COAPS:N7:1,2011-10-28T13:12:00Z,29.6619,-84.3731,1014.87,1111122 
COAPS,ioos:station:COAPS:N7:1,2011-10-28T13:13:00Z,29.6619,-84.3731,1014.869,1111122 
COAPS,ioos:station:COAPS:N7:1,2011-10-28T13:14:00Z,29.6619,-84.3731,1014.921,1111122 
COAPS,ioos:station:COAPS:N7:1,2011-10-28T13:15:00Z,29.6619,-84.3731,1014.971,1111122 
COAPS,ioos:station:COAPS:N7:1,2011-10-28T13:16:00Z,29.6619,-84.3731,1014.99,1111122 
COAPS,ioos:station:COAPS:N7:1,2011-10-28T13:17:00Z,29.6619,-84.3731,1015.001,1111122 
COAPS,ioos:station:COAPS:N7:1,2011-10-28T13:18:00Z,29.6619,-84.3731,1015.087,1111122 
COAPS,ioos:station:COAPS:N7:1,2011-10-28T13:19:00Z,29.6619,-84.3731,1015.172,1111122 
COAPS,ioos:station:COAPS:N7:1,2011-10-28T13:20:00Z,29.6619,-84.3731,1015.216,1111122 
COAPS,ioos:station:COAPS:N7:1,2011-10-28T13:21:00Z,29.6619,-84.3731,1015.248,1111122 
COAPS,ioos:station:COAPS:N7:1,2011-10-28T13:22:00Z,29.6619,-84.3731,1015.208,1111122 
COAPS,ioos:station:COAPS:N7:1,2011-10-28T13:23:00Z,29.6619,-84.3731,1015.211,1111122 
COAPS,ioos:station:COAPS:N7:1,2011-10-28T13:24:00Z,29.6619,-84.3731,1015.197,1111122 
COAPS,ioos:station:COAPS:N7:1,2011-10-28T13:25:00Z,29.6619,-84.3731,1015.197,1111122 
COAPS,ioos:station:COAPS:N7:1,2011-10-28T13:26:00Z,29.6619,-84.3731,1015.196,1111122 
COAPS,ioos:station:COAPS:N7:1,2011-10-28T13:27:00Z,29.6619,-84.3731,1015.153,1111122 
COAPS,ioos:station:COAPS:N7:1,2011-10-28T13:28:00Z,29.6619,-84.3731,1014.936,1111122 
COAPS,ioos:station:COAPS:N7:1,2011-10-28T13:29:00Z,29.6619,-84.3731,1014.777,1111122 
COAPS,ioos:station:COAPS:N7:1,2011-10-28T13:30:00Z,29.6619,-84.3731,1014.739,1111122 
COAPS,ioos:station:COAPS:N7:1,2011-10-28T13:31:00Z,29.6619,-84.3731,1014.74,1111122 
COAPS,ioos:station:COAPS:N7:1,2011-10-28T13:32:00Z,29.6619,-84.3731,1014.747,1111122 
COAPS,ioos:station:COAPS:N7:1,2011-10-28T13:33:00Z,29.6619,-84.3731,1014.738,1111122 
COAPS,ioos:station:COAPS:N7:1,2011-10-28T13:34:00Z,29.6619,-84.3731,1014.744,1111122 
COAPS,ioos:station:COAPS:N7:1,2011-10-28T13:35:00Z,29.6619,-84.3731,1014.744,1111122 
COAPS,ioos:station:COAPS:N7:1,2011-10-28T13:36:00Z,29.6619,-84.3731,1014.789,1111122 
COAPS,ioos:station:COAPS:N7:1,2011-10-28T13:37:00Z,29.6619,-84.3731,1014.747,1111122 
COAPS,ioos:station:COAPS:N7:1,2011-10-28T13:38:00Z,29.6619,-84.3731,1014.672,1111122 
COAPS,ioos:station:COAPS:N7:1,2011-10-28T13:39:00Z,29.6619,-84.3731,1014.659,1111122 
COAPS,ioos:station:COAPS:N7:1,2011-10-28T13:40:00Z,29.6619,-84.3731,1014.694,1111122 
COAPS,ioos:station:COAPS:N7:1,2011-10-28T13:41:00Z,29.6619,-84.3731,1014.68,1111122 
COAPS,ioos:station:COAPS:N7:1,2011-10-28T13:42:00Z,29.6619,-84.3731,1014.761,1111122 
COAPS,ioos:station:COAPS:N7:1,2011-10-28T13:43:00Z,29.6619,-84.3731,1014.689,1111122 
COAPS,ioos:station:COAPS:N7:1,2011-10-28T13:44:00Z,29.6619,-84.3731,1014.701,1111122 
COAPS,ioos:station:COAPS:N7:1,2011-10-28T13:45:00Z,29.6619,-84.3731,1014.717,1111122 
COAPS,ioos:station:COAPS:N7:1,2011-10-28T13:46:00Z,29.6619,-84.3731,1014.699,1111122 
COAPS,ioos:station:COAPS:N7:1,2011-10-28T13:47:00Z,29.6619,-84.3731,1014.738,1111122 
COAPS,ioos:station:COAPS:N7:1,2011-10-28T13:48:00Z,29.6619,-84.3731,1014.793,1111122 
COAPS,ioos:station:COAPS:N7:1,2011-10-28T13:49:00Z,29.6619,-84.3731,1014.782,1111122 
COAPS,ioos:station:COAPS:N7:1,2011-10-28T13:50:00Z,29.6619,-84.3731,1014.831,1111122 
COAPS,ioos:station:COAPS:N7:1,2011-10-28T13:51:00Z,29.6619,-84.3731,1014.822,1111122 
COAPS,ioos:station:COAPS:N7:1,2011-10-28T13:52:00Z,29.6619,-84.3731,1014.887,1111122 
COAPS,ioos:station:COAPS:N7:1,2011-10-28T13:53:00Z,29.6619,-84.3731,1014.826,1111122 
COAPS,ioos:station:COAPS:N7:1,2011-10-28T13:54:00Z,29.6619,-84.3731,1014.881,1111122 
COAPS,ioos:station:COAPS:N7:1,2011-10-28T13:55:00Z,29.6619,-84.3731,1014.977,1111122 
COAPS,ioos:station:COAPS:N7:1,2011-10-28T13:56:00Z,29.6619,-84.3731,1014.899,1111122 
COAPS,ioos:station:COAPS:N7:1,2011-10-28T13:57:00Z,29.6619,-84.3731,1014.916,1111122 
COAPS,ioos:station:COAPS:N7:1,2011-10-28T13:58:00Z,29.6619,-84.3731,1015.028,1111122 
COAPS,ioos:station:COAPS:N7:1,2011-10-28T13:59:00Z,29.6619,-84.3731,1015.086,1111122 
COAPS,ioos:station:COAPS:N7:1,2011-10-28T14:00:00Z,29.6619,-84.3731,1015.099,1111122 
COAPS,ioos:station:COAPS:N7:1,2011-10-28T14:01:00Z,29.6619,-84.3731,1015.04,1111122 
COAPS,ioos:station:COAPS:N7:1,2011-10-28T14:02:00Z,29.6619,-84.3731,1014.964,1111122 
COAPS,ioos:station:COAPS:N7:1,2011-10-28T14:03:00Z,29.6619,-84.3731,1015.002,1111122 
COAPS,ioos:station:COAPS:N7:1,2011-10-28T14:04:00Z,29.6619,-84.3731,1015.038,1111122 
COAPS,ioos:station:COAPS:N7:1,2011-10-28T14:05:00Z,29.6619,-84.3731,1015.077,1111122 
COAPS,ioos:station:COAPS:N7:1,2011-10-28T14:06:00Z,29.6619,-84.3731,1015.064,1111122 
COAPS,ioos:station:COAPS:N7:1,2011-10-28T14:07:00Z,29.6619,-84.3731,1015.067,1111122 
COAPS,ioos:station:COAPS:N7:1,2011-10-28T14:08:00Z,29.6619,-84.3731,1015.014,1111122 
COAPS,ioos:station:COAPS:N7:1,2011-10-28T14:09:00Z,29.6619,-84.3731,1015.113,1111122 
COAPS,ioos:station:COAPS:N7:1,2011-10-28T14:10:00Z,29.6619,-84.3731,1015.101,1111122 
COAPS,ioos:station:COAPS:N7:1,2011-10-28T14:11:00Z,29.6619,-84.3731,1015.153,1111122 
COAPS,ioos:station:COAPS:N7:1,2011-10-28T14:12:00Z,29.6619,-84.3731,1015.166,1111122 
COAPS,ioos:station:COAPS:N7:1,2011-10-28T14:13:00Z,29.6619,-84.3731,1015.199,1111122 
COAPS,ioos:station:COAPS:N7:1,2011-10-28T14:14:00Z,29.6619,-84.3731,1015.224,1111122 
COAPS,ioos:station:COAPS:N7:1,2011-10-28T14:15:00Z,29.6619,-84.3731,1015.197,1111122 
COAPS,ioos:station:COAPS:N7:1,2011-10-28T14:16:00Z,29.6619,-84.3731,1015.375,1111122 
COAPS,ioos:station:COAPS:N7:1,2011-10-28T14:17:00Z,29.6619,-84.3731,1015.375,1111122 
COAPS,ioos:station:COAPS:N7:1,2011-10-28T14:18:00Z,29.6619,-84.3731,1015.504,1111122 
COAPS,ioos:station:COAPS:N7:1,2011-10-28T14:19:00Z,29.6619,-84.3731,1015.521,1111122 
COAPS,ioos:station:COAPS:N7:1,2011-10-28T14:20:00Z,29.6619,-84.3731,1015.435,1111122 
COAPS,ioos:station:COAPS:N7:1,2011-10-28T14:21:00Z,29.6619,-84.3731,1015.42,1111122 
COAPS,ioos:station:COAPS:N7:1,2011-10-28T14:22:00Z,29.6619,-84.3731,1015.481,1111122 
COAPS,ioos:station:COAPS:N7:1,2011-10-28T14:23:00Z,29.6619,-84.3731,1015.388,1111122 
COAPS,ioos:station:COAPS:N7:1,2011-10-28T14:24:00Z,29.6619,-84.3731,1015.459,1111122 
COAPS,ioos:station:COAPS:N7:1,2011-10-28T14:25:00Z,29.6619,-84.3731,1015.486,1111122 
COAPS,ioos:station:COAPS:N7:1,2011-10-28T14:26:00Z,29.6619,-84.3731,1015.5,1111122 
COAPS,ioos:station:COAPS:N7:1,2011-10-28T14:27:00Z,29.6619,-84.3731,1015.423,1111122 
COAPS,ioos:station:COAPS:N7:1,2011-10-28T14:28:00Z,29.6619,-84.3731,1015.085,1111122 
COAPS,ioos:station:COAPS:N7:1,2011-10-28T14:29:00Z,29.6619,-84.3731,1015.076,1111122 
COAPS,ioos:station:COAPS:N7:1,2011-10-28T14:30:00Z,29.6619,-84.3731,1015.277,1111122 
COAPS,ioos:station:COAPS:N7:1,2011-10-28T14:31:00Z,29.6619,-84.3731,1015.122,1111122 
COAPS,ioos:station:COAPS:N7:1,2011-10-28T14:32:00Z,29.6619,-84.3731,1015.138,1111122 
COAPS,ioos:station:COAPS:N7:1,2011-10-28T14:33:00Z,29.6619,-84.3731,1015.191,1111122 
COAPS,ioos:station:COAPS:N7:1,2011-10-28T14:34:00Z,29.6619,-84.3731,1014.957,1111122 
COAPS,ioos:station:COAPS:N7:1,2011-10-28T14:35:00Z,29.6619,-84.3731,1015.102,1111122 
COAPS,ioos:station:COAPS:N7:1,2011-10-28T14:36:00Z,29.6619,-84.3731,1015.164,1111122 
COAPS,ioos:station:COAPS:N7:1,2011-10-28T14:37:00Z,29.6619,-84.3731,1015.239,1111122 
COAPS,ioos:station:COAPS:N7:1,2011-10-28T14:38:00Z,29.6619,-84.3731,1015.262,1111122 
COAPS,ioos:station:COAPS:N7:1,2011-10-28T14:39:00Z,29.6619,-84.3731,1015.43,1111122 
COAPS,ioos:station:COAPS:N7:1,2011-10-28T14:40:00Z,29.6619,-84.3731,1015.384,1111122 
COAPS,ioos:station:COAPS:N7:1,2011-10-28T14:41:00Z,29.6619,-84.3731,1015.29,1111122 
COAPS,ioos:station:COAPS:N7:1,2011-10-28T14:42:00Z,29.6619,-84.3731,1015.262,1111122 
COAPS,ioos:station:COAPS:N7:1,2011-10-28T14:43:00Z,29.6619,-84.3731,1015.351,1111122 
COAPS,ioos:station:COAPS:N7:1,2011-10-28T14:44:00Z,29.6619,-84.3731,1015.38,1111122 
COAPS,ioos:station:COAPS:N7:1,2011-10-28T14:45:00Z,29.6619,-84.3731,1015.443,1111122 
COAPS,ioos:station:COAPS:N7:1,2011-10-28T14:46:00Z,29.6619,-84.3731,1015.371,1111122 
COAPS,ioos:station:COAPS:N7:1,2011-10-28T14:47:00Z,29.6619,-84.3731,1015.403,1111122 
COAPS,ioos:station:COAPS:N7:1,2011-10-28T14:48:00Z,29.6619,-84.3731,1015.235,1111122 
COAPS,ioos:station:COAPS:N7:1,2011-10-28T14:49:00Z,29.6619,-84.3731,1015.088,1111122 
COAPS,ioos:station:COAPS:N7:1,2011-10-28T14:50:00Z,29.6619,-84.3731,1014.989,1111122 
COAPS,ioos:station:COAPS:N7:1,2011-10-28T14:51:00Z,29.6619,-84.3731,1014.796,1111122 
COAPS,ioos:station:COAPS:N7:1,2011-10-28T14:52:00Z,29.6619,-84.3731,1014.9,1111122 
COAPS,ioos:station:COAPS:N7:1,2011-10-28T14:53:00Z,29.6619,-84.3731,1014.813,1111122 
COAPS,ioos:station:COAPS:N7:1,2011-10-28T14:54:00Z,29.6619,-84.3731,1014.73,1111122 
COAPS,ioos:station:COAPS:N7:1,2011-10-28T14:55:00Z,29.6619,-84.3731,1014.928,1111122 
COAPS,ioos:station:COAPS:N7:1,2011-10-28T14:56:00Z,29.6619,-84.3731,1014.787,1111122 
COAPS,ioos:station:COAPS:N7:1,2011-10-28T14:57:00Z,29.6619,-84.3731,1014.829,1111122 